FENGYUN 1C DEB

Satellite information

Favourite Embed

Satellite Type and Status

DEBRISIN ORBIT

Key statistics

Satellite FENGYUN 1C DEB at a glance.

Uptime

9493

Days in orbit

Revolutions

≈ 14.2

Per day

Orbit

SSO

Sun Synchronous Orbit

Inclination

98.7

Latest

Satellite identification and parameters

Extended collection of information and parameters for FENGYUN 1C DEB.

Object identification

Identified? True

Debris? True

Object name: FENGYUN 1C DEB

International designator: 1999-025BYH

Object number (NORAD): 31542

Object ID (CCSDS): 31542

Country: PEOPLES REPUBLIC OF CHINA (PRC)

Current information (Y/N): Y

RCS size: SMALL

Orbital parameters

Period: 101.304 minutes

Inclination: 98.7444 deg

SMA: 7198.536 km

Apoapsis: 856.104 km

Periapsis: 784.699 km

RAAN: 181.8722 deg

Eccentricy: 0.0049597

Argument of periapsis: 126.3833 deg

Mean anomaly: 234.1935 deg

Mean motion: 14.21465988 rev/day

Mean motion (dot): 0.00003461 rev/day2

B* drag term: 0.001582 1/REarth

Two-line elements (TLE)

Creation date: May 6, 2025, 3:54 a.m.

Reference frame: TEME

Reference center: EARTH

Epoch: May 5, 2025, 9:26 p.m. UTC

TLE line 0: 0 FENGYUN 1C DEB

TLE line 1: 1 31542U 99025BYH 25125.89363751 .00003461 00000-0 15820-2 0 9999

TLE line 2: 2 31542 98.7444 181.8722 0049597 126.3833 234.1935 14.21465988928017

Live tracking on map

Real-time ground track for satellite FENGYUN 1C DEB.

In-orbit conjunctions

A list of the most updated potential collisions computed for object FENGYUN 1C DEB.

Target Orbit TCA Probability of collision Miss distance Type
PEGASUS DEB LEO 2025-03-24 10:44:24 0.0001028827 229.0 (m) DEBRIS
FENGYUN 1C DEB SSO 2024-11-11 18:35:20 0.000182923 717.0 (m) DEBRIS
SL-3 DEB LEO 2024-08-27 02:56:50 0.0001333637 160.0 (m) DEBRIS

Associated space launch

Chinese polar orbiting meteorological satellite

FENGYUN 1C DEB was lifted into orbit during the mission ‘Long March 4B | Feng Yun 1C’, on board a Long March 4B space rocket.

The launch took place on May 10, 1999, 1:33 a.m. from Launch Complex 7.

For more information about the launch, click the button.

Launch to space Long March 4B | Feng Yun 1C
Long March 4B | Feng Yun 1C

Agency: N/A

Status: Launch Successful

Launch date: May 10, 1999, 1:33 a.m. UTC

Rocket: Long March 4B

Launch pad: Launch Complex 7

Location: Taiyuan Satellite Launch Center, People's Republic of China

...

Latest news about this satellite

There are no fresh news available about this satellite. Check back as we update our databases every day.


Newsletter sign-up

Weekly statistics, charts and insights to help you stay on top of the space industry.